Printer-friendly version

IAU Minor Planet Center

Minor Planet Center

MPEC 2005-V58 : 2005 VX3

The following Minor Planet Electronic Circular may be linked-to from your own Web pages, but must not otherwise be redistributed electronically.

A form allowing access to any MPEC is at the bottom of this page.


Read MPEC 2005-V57 Read MPEC 2005-V59


M.P.E.C. 2005-V58                                Issued 2005 Nov. 8, 22:06 UT

     The Minor Planet Electronic Circulars contain information on unusual
         minor planets and routine data on comets.  They are published
   on behalf of Commission 20 of the International Astronomical Union by the
          Minor Planet Center, Smithsonian Astrophysical Observatory,
                          Cambridge, MA 02138, U.S.A.

                  Supported in part by the Brinson Foundation
                  Supported in part by the TABASGO Foundation
             Prepared using the Tamkin Foundation Computer Network

                              MPC@CFA.HARVARD.EDU
          URL http://cfa-www.harvard.edu/iau/mpc.html  ISSN 1523-6714

                                   2005 VX3

Observations:
     K05V03X* C2005 11 01.49146 05 30 32.72 +17 43 48.1          20.7 V EV058G96
     K05V03X  C2005 11 01.49580 05 30 32.43 +17 43 44.6          20.0 V EV058G96
     K05V03X  C2005 11 01.50012 05 30 32.14 +17 43 41.0          20.6 V EV058G96
     K05V03X  C2005 11 01.50442 05 30 31.86 +17 43 38.1          20.5 V EV058G96
     K05V03X  C2005 11 04.07581 05 27 30.62 +17 09 12.1                 EV058J95
     K05V03X  C2005 11 04.08154 05 27 30.22 +17 09 07.6                 EV058J95
     K05V03X  C2005 11 04.08725 05 27 29.77 +17 09 03.4          20.3 R EV058J95
     K05V03X  C2005 11 04.47722 05 27 01.50 +17 03 46.4          20.0 V EV058G96
     K05V03X  C2005 11 04.48444 05 27 00.96 +17 03 40.6          20.0 V EV058G96
     K05V03X  C2005 11 04.49170 05 27 00.47 +17 03 34.6          20.3 V EV058G96
     K05V03X  C2005 11 04.49895 05 26 59.93 +17 03 28.8          20.1 V EV058G96
     K05V03X IC2005 11 05.20429 05 26 08.48 +16 53 51.6                 EV058J95
     K05V03X IC2005 11 05.20938 05 26 08.00 +16 53 47.6                 EV058J95
     K05V03X IC2005 11 05.21448 05 26 07.71 +16 53 43.3                 EV058J95
     K05V03X 5C2005 11 05.29826 05 26 01.67 +16 52 33.8          20.4 R EV058673
     K05V03X  C2005 11 05.30454 05 26 01.23 +16 52 29.9          19.8 V EV058G96
     K05V03X 5C2005 11 05.30637 05 26 01.13 +16 52 28.6                 EV058673
     K05V03X  C2005 11 05.31525 05 26 00.44 +16 52 21.2          19.9 V EV058G96
     K05V03X 5C2005 11 05.31644 05 26 00.48 +16 52 21.1                 EV058673
     K05V03X 5C2005 11 05.31956 05 26 00.12 +16 52 17.3                 EV058673
     K05V03X  C2005 11 05.32601 05 25 59.64 +16 52 12.4          20.1 V EV058G96
     K05V03X  C2005 11 05.33674 05 25 58.86 +16 52 03.7          19.9 V EV058G96
     K05V03X  C2005 11 06.39902 05 24 39.98 +16 37 26.8          20.6 R EV058734
     K05V03X  C2005 11 06.40495 05 24 39.52 +16 37 22.8          19.2 V EV058703
     K05V03X  C2005 11 06.41050 05 24 39.12 +16 37 19.6          20.6 V EV058703
     K05V03X  C2005 11 06.41174 05 24 39.05 +16 37 18.7          20.2 R EV058734
     K05V03X 5C2005 11 06.41343 05 24 38.96 +16 37 16.2          20.2 R EV058673
     K05V03X  C2005 11 06.41601 05 24 38.63 +16 37 14.7                 EV058703
     K05V03X  C2005 11 06.41720 05 24 38.55 +16 37 14.5          20.6 R EV058734
     K05V03X  C2005 11 06.42154 05 24 38.13 +16 37 10.3                 EV058703
     K05V03X 5C2005 11 06.42373 05 24 38.16 +16 37 07.7                 EV058673
     K05V03X 5C2005 11 06.43032 05 24 37.69 +16 37 02.6                 EV058673
     K05V03X 5C2005 11 06.43692 05 24 37.19 +16 36 57.4                 EV058673
     K05V03X  C2005 11 06.48172 05 24 33.75 +16 36 19.9          21.3 R EV058651
     K05V03X  C2005 11 06.48354 05 24 33.59 +16 36 18.6          21.3 R EV058651
     K05V03X  C2005 11 06.48536 05 24 33.48 +16 36 16.8          21.5 R EV058651

Observer details:
651 Grasslands Observatory, Tucson.  Observer J. E. McGaha.  0.62-m f/5.1
    Newtonian reflector + CCD.
673 Table Mountain Observatory, Wrightwood.  Observer J. Young.  0.6-m f/16
    Cassegrain + CCD.
703 Catalina Sky Survey.  Observer S. M. Larson.  Measurers E. C. Beshore,
    E. J. Christensen, G. J. Garradd, A. D. Grauer, R. E. Hill, R. A. Kowalski,
    S. M. Larson, R. H. McNaught.  0.68-m Schmidt + CCD.
734 Farpoint Observatory.  Observer G. Hug.  Measurer D. Brunken.  0.7-m
    reflector + CCD.
G96 Mt. Lemmon Survey.  Observers S. M. Larson, R. Hill, A. D. Grauer.
    Measurers E. C. Beshore, E. J. Christensen, G. J. Garradd, A. D. Grauer,
    R. E. Hill, R. A. Kowalski, S. M. Larson, R. H. McNaught.  1.5-m reflector
    + CCD.
J95 Great Shefford.  Observer P. Birtwhistle.  0.40-m f/6.0 Schmidt-Cassegrain
    + CCD.

Orbital elements:
2005 VX3
Epoch 2005 Oct. 17.0 TT = JDT 2453660.5                 MPC
M 359.08791              (2000.0)            P               Q
n   0.03058962     Peri.  186.94988     +0.30267679     +0.26934492
a  10.1255824      Node   254.46293     +0.91375008     +0.19075342
e   0.6068210      Incl.  108.39221     +0.27101207     -0.94396316
P  32.2            H   14.4           G   0.15
From 36 observations 2005 Nov. 1-6.  E-assumed.

Ephemeris:
2005 VX3                 a,e,i = 10.13, 0.61, 108                q = 3.9812
Date    TT    R. A. (2000) Decl.     Delta      r     Elong.  Phase     V
2005 11 06    05 25.16   +16 43.0    3.158    3.982   141.5     8.9    20.5
2005 11 16    05 11.90   +14 20.9    3.068    3.981   154.1     6.2    20.3
2005 11 26    04 57.34   +11 52.7    3.020    3.982   164.9     3.7    20.1
2005 12 06    04 42.33   +09 24.6    3.018    3.983   166.8     3.2    20.1
2005 12 16    04 27.81   +07 03.8    3.060    3.986   157.3     5.5    20.3
2005 12 26    04 14.58   +04 56.5    3.145    3.990   144.9     8.1    20.5
2006 01 05    04 03.26   +03 06.7    3.266    3.995   132.4    10.5    20.6
2006 01 15    03 54.19   +01 35.9    3.414    4.002   120.3    12.3    20.8
2006 01 25    03 47.44   +00 22.9    3.583    4.009   108.7    13.4    21.0
2006 02 04    03 42.95   -00 34.3    3.763    4.017    97.8    14.1    21.1
2006 02 14    03 40.53   -01 19.0    3.946    4.027    87.5    14.2    21.2
2006 02 24    03 39.92   -01 54.0    4.128    4.037    77.9    13.9    21.3
2006 03 06    03 40.90   -02 22.3    4.302    4.049    68.7    13.2    21.4
2006 03 16    03 43.21   -02 46.5    4.464    4.062    60.2    12.3    21.4

Timothy B. Spahr             (C) Copyright 2005 MPC           M.P.E.C. 2005-V58

Read MPEC 2005-V57 Read MPEC 2005-V59


MPEC number:

Enter an
MPEC number in one of the following forms:
  • 1997-B01 (the full form)
  • J97B01 (the packed version of the full form)
  • B01 (the abbreviated form)

Valid HTML 4.01!